• In Moldova, Republic
  • List of Countries
  • For 7 days
  • Water Temperature
  • Satellite Maps
  • Weather Map
  • Weather Widgets
  • user-avatar
    Login

    Hourly Weather Tibissa

    Today, 22 August, Tuesday

    Time Temperature Precipitation Wind Pressure Humidity
    00:00 +25°C° 0 mm 3 mps 687 mmHg 44%
    01:00 +24°C° 0 mm 3 mps 688 mmHg 47%
    02:00 +24°C° 0 mm 2 mps 687 mmHg 49%
    03:00 +23°C° 0 mm 2 mps 687 mmHg 51%
    04:00 +23°C° 0 mm 2 mps 687 mmHg 53%
    05:00 +23°C° 0 mm 2 mps 687 mmHg 54%
    06:00 +23°C° 0 mm 2 mps 687 mmHg 54%
    07:00 +23°C° 0 mm 2 mps 688 mmHg 52%
    08:00 +24°C° 0 mm 2 mps 688 mmHg 48%
    09:00 +25°C° 0 mm 2 mps 688 mmHg 43%
    10:00 +27°C° 0 mm 2 mps 689 mmHg 38%
    11:00 +28°C° 0 mm 2 mps 689 mmHg 34%
    12:00 +29°C° 0 mm 2 mps 689 mmHg 30%
    13:00 +31°C° 0 mm 2 mps 689 mmHg 27%
    14:00 +31°C° 0 mm 2 mps 688 mmHg 25%
    15:00 +33°C° 0 mm 3 mps 688 mmHg 24%
    16:00 +33°C° 0 mm 3 mps 688 mmHg 22%
    17:00 +33°C° 0 mm 3 mps 688 mmHg 22%
    18:00 +32°C° 0 mm 4 mps 688 mmHg 22%
    19:00 +32°C° 0 mm 4 mps 688 mmHg 22%
    20:00 +30°C° 0 mm 5 mps 688 mmHg 27%
    21:00 +28°C° 0 mm 5 mps 688 mmHg 31%
    22:00 +27°C° 0 mm 5 mps 688 mmHg 35%
    23:00 +26°C° 0 mm 5 mps 688 mmHg 40%

    Tomorrow, 23 August, Wednesday

    Time Temperature Precipitation Wind Pressure Humidity
    00:00 +25°C° 0 mm 4 mps 688 mmHg 46%
    01:00 +24°C° 0 mm 3 mps 687 mmHg 52%
    02:00 +24°C° 0 mm 2 mps 687 mmHg 53%
    03:00 +23°C° 0 mm 2 mps 687 mmHg 55%
    04:00 +23°C° 0 mm 1 mps 687 mmHg 57%
    05:00 +23°C° 0 mm 1 mps 687 mmHg 56%
    06:00 +23°C° 0 mm 1 mps 687 mmHg 55%
    07:00 +23°C° 0 mm 1 mps 688 mmHg 54%
    08:00 +25°C° 0 mm 1 mps 688 mmHg 48%
    09:00 +26°C° 0 mm 1 mps 689 mmHg 42%
    10:00 +28°C° 0 mm 1 mps 689 mmHg 35%
    11:00 +29°C° 0 mm 2 mps 689 mmHg 32%
    12:00 +30°C° 0 mm 2 mps 689 mmHg 28%
    13:00 +31°C° 0 mm 2 mps 689 mmHg 25%
    14:00 +32°C° 0 mm 2 mps 689 mmHg 23%
    15:00 +32°C° 0 mm 2 mps 689 mmHg 21%
    16:00 +34°C° 0 mm 3 mps 688 mmHg 20%
    17:00 +33°C° 0 mm 3 mps 688 mmHg 20%
    18:00 +33°C° 0 mm 4 mps 688 mmHg 20%
    19:00 +32°C° 0 mm 4 mps 688 mmHg 21%
    20:00 +30°C° 0 mm 4 mps 689 mmHg 24%
    21:00 +29°C° 0 mm 4 mps 689 mmHg 28%
    22:00 +28°C° 0 mm 5 mps 689 mmHg 31%
    23:00 +27°C° 0 mm 4 mps 689 mmHg 39%

    Day after tomorrow, 24 August, Thursday

    Time Temperature Precipitation Wind Pressure Humidity
    00:00 +26°C° 0 mm 4 mps 689 mmHg 47%
    01:00 +25°C° 0 mm 4 mps 688 mmHg 54%
    02:00 +24°C° 0 mm 3 mps 688 mmHg 57%
    03:00 +24°C° 0 mm 2 mps 688 mmHg 59%
    04:00 +23°C° 0 mm 1 mps 687 mmHg 61%
    05:00 +23°C° 0 mm 1 mps 688 mmHg 60%
    06:00 +23°C° 0 mm 1 mps 688 mmHg 59%
    07:00 +23°C° 0 mm 1 mps 688 mmHg 58%
    08:00 +25°C° 0 mm 1 mps 689 mmHg 50%
    09:00 +27°C° 0 mm 1 mps 689 mmHg 43%
    10:00 +28°C° 0 mm 1 mps 690 mmHg 35%
    11:00 +29°C° 0 mm 1 mps 690 mmHg 31%
    12:00 +31°C° 0 mm 1 mps 689 mmHg 27%
    13:00 +32°C° 0 mm 1 mps 689 mmHg 23%
    14:00 +32°C° 0 mm 2 mps 689 mmHg 21%
    15:00 +34°C° 0 mm 2 mps 689 mmHg 20%
    16:00 +35°C° 0 mm 3 mps 689 mmHg 18%
    17:00 +34°C° 0 mm 3 mps 689 mmHg 19%
    18:00 +33°C° 0 mm 4 mps 689 mmHg 20%
    19:00 +33°C° 0 mm 4 mps 689 mmHg 21%
    20:00 +32°C° 0 mm 4 mps 689 mmHg 28%
    21:00 +29°C° 0 mm 4 mps 689 mmHg 34%
    22:00 +28°C° 0 mm 4 mps 689 mmHg 40%
    23:00 +27°C° 0 mm 4 mps 689 mmHg 47%

    25 August, Friday

    Time Temperature Precipitation Wind Pressure Humidity
    00:00 +26°C° 0 mm 4 mps 689 mmHg 54%
    01:00 +25°C° 0 mm 3 mps 688 mmHg 61%
    02:00 +25°C° 0 mm 3 mps 688 mmHg 64%
    03:00 +24°C° 0 mm 2 mps 688 mmHg 67%
    04:00 +24°C° 0 mm 2 mps 688 mmHg 69%
    05:00 +24°C° 0 mm 2 mps 688 mmHg 69%
    06:00 +24°C° 0 mm 2 mps 688 mmHg 69%
    07:00 +24°C° 0 mm 2 mps 688 mmHg 69%
    08:00 +25°C° 0 mm 2 mps 688 mmHg 61%
    09:00 +27°C° 0 mm 2 mps 689 mmHg 52%
    10:00 +28°C° 0 mm 2 mps 689 mmHg 44%
    11:00 +29°C° 0 mm 2 mps 689 mmHg 39%
    12:00 +31°C° 0 mm 2 mps 689 mmHg 33%
    13:00 +32°C° 0 mm 2 mps 689 mmHg 28%
    14:00 +32°C° 0 mm 2 mps 689 mmHg 26%
    15:00 +34°C° 0 mm 2 mps 688 mmHg 24%
    16:00 +35°C° 0 mm 2 mps 688 mmHg 22%
    17:00 +34°C° 0 mm 3 mps 688 mmHg 24%
    18:00 +33°C° 0 mm 4 mps 688 mmHg 25%
    19:00 +33°C° 0 mm 5 mps 688 mmHg 27%
    20:00 +30°C° 0 mm 5 mps 688 mmHg 32%
    21:00 +29°C° 0 mm 5 mps 688 mmHg 37%
    22:00 +28°C° 0 mm 6 mps 688 mmHg 41%
    23:00 +27°C° 0 mm 5 mps 688 mmHg 45%

    26 August, Saturday

    Time Temperature Precipitation Wind Pressure Humidity
    00:00 +26°C° 0 mm 4 mps 688 mmHg 48%
    01:00 +26°C° 0 mm 3 mps 687 mmHg 51%
    02:00 +25°C° 0 mm 2 mps 687 mmHg 53%
    03:00 +25°C° 0 mm 2 mps 687 mmHg 55%
    04:00 +24°C° 0 mm 2 mps 687 mmHg 57%
    05:00 +24°C° 0 mm 2 mps 687 mmHg 57%
    06:00 +24°C° 0 mm 2 mps 687 mmHg 57%
    07:00 +24°C° 0 mm 2 mps 687 mmHg 56%
    08:00 +26°C° 0 mm 2 mps 687 mmHg 50%
    09:00 +27°C° 0 mm 2 mps 688 mmHg 43%
    10:00 +29°C° 0 mm 2 mps 688 mmHg 36%
    11:00 +30°C° 0 mm 2 mps 688 mmHg 32%
    12:00 +31°C° 0 mm 2 mps 688 mmHg 29%
    13:00 +34°C° 0 mm 2 mps 688 mmHg 25%
    14:00 +34°C° 0 mm 2 mps 688 mmHg 23%
    15:00 +35°C° 0 mm 2 mps 687 mmHg 22%
    16:00 +35°C° 0 mm 3 mps 687 mmHg 21%
    17:00 +34°C° 0 mm 3 mps 687 mmHg 22%
    18:00 +34°C° 0 mm 4 mps 687 mmHg 23%
    19:00 +33°C° 0 mm 5 mps 687 mmHg 25%
    20:00 +32°C° 0 mm 5 mps 687 mmHg 28%
    21:00 +30°C° 0 mm 5 mps 687 mmHg 32%
    22:00 +29°C° 0 mm 5 mps 687 mmHg 35%
    23:00 +28°C° 0 mm 4 mps 687 mmHg 38%

    27 August, Sunday

    Time Temperature Precipitation Wind Pressure Humidity
    00:00 +28°C° 0 mm 3 mps 687 mmHg 41%
    01:00 +27°C° 0 mm 3 mps 687 mmHg 44%
    02:00 +26°C° 0 mm 2 mps 687 mmHg 47%
    03:00 +26°C° 0 mm 2 mps 686 mmHg 49%
    04:00 +25°C° 0 mm 2 mps 686 mmHg 52%
    05:00 +25°C° 0 mm 2 mps 686 mmHg 52%
    06:00 +25°C° 0 mm 2 mps 687 mmHg 52%
    07:00 +26°C° 0 mm 2 mps 687 mmHg 52%
    08:00 +27°C° 0 mm 2 mps 687 mmHg 46%
    09:00 +29°C° 0 mm 2 mps 688 mmHg 40%
    10:00 +31°C° 0 mm 2 mps 688 mmHg 34%
    11:00 +32°C° 0 mm 2 mps 688 mmHg 30%
    12:00 +34°C° 0 mm 2 mps 688 mmHg 26%
    13:00 +35°C° 0 mm 2 mps 688 mmHg 22%
    14:00 +36°C° 0 mm 2 mps 687 mmHg 21%
    15:00 +36°C° 0 mm 3 mps 687 mmHg 19%
    16:00 +37°C° 0 mm 3 mps 687 mmHg 18%
    17:00 +36°C° 0 mm 4 mps 687 mmHg 19%
    18:00 +35°C° 0 mm 4 mps 687 mmHg 21%
    19:00 +34°C° 0 mm 5 mps 687 mmHg 22%
    20:00 +33°C° 0 mm 4 mps 687 mmHg 26%
    21:00 +32°C° 0 mm 4 mps 687 mmHg 29%
    22:00 +30°C° 0 mm 4 mps 687 mmHg 33%
    23:00 +29°C° 0 mm 3 mps 687 mmHg 35%
    Show more